Content
SEND FEEDBACK

Daily
Averages
Monthly
Summary
United Kingdom

BARSHAM, ENGLAND


Home > Europe > United Kingdom > England
Elevation: 223 feet     Latitude: 52 51N     Longitude: 000 46E

WEATHER
 
SELECT A DAY
Number of Records: 158,433;   Date Range: 8/10/96 - 7/9/14
 
SHARE

PRINT THIS DATA

[ ← Previous Day ]
WEATHER ALMANAC - OCTOBER 1, 2013
[ Next Day → ]
[ °C ]   °F
Weather ElementAverageHighLow
Temperature54.1 °F64.4 °F (1:58 pm)43.9 °F (4:58 am)
Dewpoint47.5 °F51.8 °F (8:59 am)43.7 °F (4:58 am)
Humidity80.6 %100 % (5:58 am)51 % (1:58 pm)
Barometer29.84 in29.88 in (10:58 pm)29.81 in (6:59 am)
Wind Speed9.6 mph18.4 mph (10:58 am)
Wind Gust26.5 mph (10:58 am)
Weather ElementAverage
Visibility6.1 mi
Wind DirectionE (92.5 °)

Weather ElementTotal
Precipitation---
Heating Degree Days10.9 (Base 65)
Growing Degree Days4.2 (Base 50)
Averaged from 28 records on October 1, 2013
WEATHER CONDITIONS BREAKOUT
WIND DIRECTION BREAKOUT
WEATHER BY HOUR - OCTOBER 1, 2013
[ °C ]   °F
Local TimeTemperatureDewpointHumidityBarometerVisibilityWind DirectionWind SpeedGust SpeedPrecipitationEventsConditions
1:58 AM46.0 °F45.1 °F97 %29.82 in6.2 miNE (50°)4.6 mphClear
2:58 AM45.5 °F44.4 °F96 %29.82 in6.2 miENE (70°)5.8 mphClear
3:58 AM45.1 °F44.6 °F98 %29.82 in5.6 miNE (50°)5.8 mphClear
4:58 AM43.9 °F43.7 °F99 %29.82 in5.6 miENE (60°)5.8 mphClear
5:58 AM45.1 °F45.1 °F100 %29.82 in5.0 miENE (60°)9.2 mphClear
6:27 AM46.4 °F46.4 °F100 %29.82 in6.2 miENE (70°)5.8 mphMostly Cloudy
6:58 AM49.3 °F49.1 °F99 %29.82 in6.2 miEast (80°)6.9 mphScattered Clouds
6:59 AM50.0 °F50.0 °F100 %29.81 in6.2 miEast (80°)6.9 mphMostly Cloudy
7:11 AM50.0 °F50.0 °F100 %29.81 in6.2 miEast (90°)6.9 mphScattered Clouds
7:47 AM51.8 °F50.0 °F94 %29.81 in6.2 miEast (90°)10.4 mphOvercast
7:58 AM53.1 °F50.7 °F92 %29.82 in6.2 miEast (90°)9.2 mphOvercast
8:58 AM55.4 °F50.9 °F85 %29.84 in6.2 miESE (110°)10.4 mphMostly Cloudy
8:59 AM55.4 °F51.8 °F88 %29.83 in6.2 miESE (110°)10.4 mphScattered Clouds
9:58 AM58.6 °F50.4 °F74 %29.84 in6.2 miESE (120°)13.8 mph19.6 mphClear
10:58 AM61.3 °F47.5 °F60 %29.86 in6.2 miESE (120°)18.4 mph26.5 mphScattered Clouds
11:58 AM63.0 °F46.9 °F56 %29.84 in6.2 miEast (100°)15.0 mphClear
12:58 PM64.0 °F46.8 °F53 %29.84 in6.2 miESE (120°)18.4 mph24.2 mphClear
1:58 PM64.4 °F46.0 °F51 %29.84 in6.2 miESE (110°)12.7 mphPartly Cloudy
2:58 PM61.9 °F45.7 °F55 %29.84 in6.2 miESE (120°)10.4 mphScattered Clouds
3:58 PM62.6 °F45.7 °F54 %29.84 in6.2 miSE (130°)12.7 mphPartly Cloudy
4:58 PM59.7 °F45.3 °F59 %29.85 in6.2 miESE (110°)12.7 mph18.4 mphClear
5:58 PM59.0 °F46.0 °F62 %29.86 in6.2 miESE (120°)12.7 mphClear
6:58 PM54.9 °F46.4 °F73 %29.86 in6.2 miENE (70°)6.9 mphClear
7:58 PM54.0 °F48.0 °F80 %29.87 in6.2 miEast (90°)9.2 mphClear
8:58 PM53.8 °F48.7 °F83 %29.86 in6.2 miEast (100°)5.8 mphClear
9:58 PM54.1 °F48.7 °F82 %29.87 in6.2 miEast (90°)5.8 mphClear
10:58 PM52.3 °F48.2 °F86 %29.88 in6.2 miEast (80°)8.1 mphClear
11:58 PM54.1 °F48.6 °F81 %29.87 in6.2 miEast (100°)8.1 mphClear
Hourly data recorded from EGUL, located miles away from Barsham, England







STORIES FROM OUR PARTNERS